Regional Weather Roundup
Issued by NWS Little Rock, AR

Home | Current Version | Previous Version | Text Only | Print | Product List | Glossary Off
Versions: 1 2 3 4 5 6 7 8 9 10 11 12 13 14 15 16 17 18 19 20 21 22 23 24 25 26 27 28 29 30 31 32 33 34 35 36 37 38 39 40 41 42 43 44 45 46 47 48 49 50

000
ASUS44 KLZK 282105
RWRLZK

WEATHER ROUNDUP FOR ARKANSAS
NATIONAL WEATHER SERVICE LITTLE ROCK AR
400 PM CDT SAT MAR 28 2015

NOTE: "FAIR" INDICATES FEW OR NO CLOUDS BELOW 12,000 FEET WITH NO
SIGNIFICANT WEATHER AND/OR OBSTRUCTIONS TO VISIBILITY.

ARZ001-003-010-029-282200-
NORTHWEST ARKANSAS

CITY           SKY/WX    TMP DP  RH WIND       PRES   REMARKS
FAYETTEVILLE   SUNNY     59  41  51 SW8       30.08F
FORT SMITH     SUNNY     55  41  59 NE22      30.10S
HARRISON       SUNNY     49  35  58 E14G22    30.15F
BENTONVILLE    SUNNY     61  39  44 SE8       30.09F
ROGERS         MOSUNNY   60  40  47 CALM      30.09F
SILOAM SPGS    SUNNY     63  39  42 S7        30.08F
HIGHFILL       SUNNY     60  39  45 MISG      30.07F
SPRINGDALE     MOSUNNY   59  41  51 SE8       30.10F
$$

ARZ004-005-016-282200-
NORTH CENTRAL ARKANSAS

CITY           SKY/WX    TMP DP  RH WIND       PRES   REMARKS
BATESVILLE     CLOUDY    37  32  81 SE6       30.27S
FLIPPIN        CLOUDY    41  28  60 E13       30.21S
MTN HOME       CLOUDY    38  30  73 E12G18    30.21F
$$

ARZ040-041-282200-
WEST CENTRAL ARKANSAS

CITY           SKY/WX    TMP DP  RH WIND       PRES   REMARKS
MENA           SUNNY     68  41  37 S3        30.08S
MOUNT IDA      SUNNY     61  37  41 SE12      30.09F
$$

ARZ009-017-025-026-028-282200-
NORTHEAST ARKANSAS

CITY           SKY/WX    TMP DP  RH WIND       PRES   REMARKS
CORNING          N/A     41  32  70 S6        30.29F
JONESBORO      CLOUDY    39  29  67 SE7       30.28F
NEWPORT        CLOUDY    39  35  85 E8        30.29F
BLYTHEVILLE    CLOUDY    44  23  43 E6        30.28F
$$

ARZ022-023-033-042-044-282200-
CENTRAL ARKANSAS

CITY           SKY/WX    TMP DP  RH WIND       PRES   REMARKS
LITTLE ROCK    MOSUNNY   50  32  50 E15       30.22F
N LITTLE ROCK  MOSUNNY   49  35  58 E13G21    30.22F
JACKSONVILLE   SUNNY     48  32  53 SE13G21   30.22F
SEARCY         CLOUDY    45  32  60 E12       30.28S
HOT SPRINGS    SUNNY     57  39  51 E13       30.15S
RUSSELLVILLE   CLOUDY    50  37  61 E12       30.18F
CLINTON        FAIR      48  30  49 E12G17    30.23S
$$

ARZ036-282200-
EAST ARKANSAS

CITY           SKY/WX    TMP DP  RH WIND       PRES   REMARKS
WEST MEMPHIS   CLOUDY    40  29  64 E6        30.27F
$$

ARZ050-053-066-070-073-282200-
SOUTHWEST ARKANSAS

CITY           SKY/WX    TMP DP  RH WIND       PRES   REMARKS
ARKADELPHIA    FAIR      62  44  51 SE7       30.14F
CAMDEN         SUNNY     64  39  39 MISG      30.14S
TEXARKANA      SUNNY     71  45  39 SE8       30.05F
EL DORADO      SUNNY     66  42  41 SE8       30.11F
DE QUEEN       SUNNY     67  45  45 E9        30.05F
$$

ARZ056-057-069-282200-
SOUTHEAST ARKANSAS

CITY           SKY/WX    TMP DP  RH WIND       PRES   REMARKS
PINE BLUFF     SUNNY     51  35  54 E15       30.22F
STUTTGART      PTSUNNY   48  27  43 E14G20    30.24F
MONTICELLO     SUNNY     53  33  46 E12G22    30.20F

$$





USA.gov is the U.S. government's official web portal to all federal, state and local government web resources and services.